Location: Balsareny
(41.8670°N, 1.8830°E)
Time: 08:32:29
(UTC+01:00)

Envisat - Visible Passes

Search period start: 27 January 2021 00:00
Search period end: 06 February 2021 00:00
Orbit: 764 x 766 km, 98.1° (Epoch: 26 January)

Date Brightness Start Highest point End Pass type
(mag) Time Alt. Az. Time Alt. Az. Time Alt. Az.
27 Jan 4.5 06:03:08 10° NNE 06:07:50 37° E 06:12:30 10° SSE visible
27 Jan 5.9 18:58:22 10° SW 19:01:59 19° W 19:05:36 10° NW visible
28 Jan 5.8 05:27:29 10° NE 05:30:43 17° E 05:33:56 10° SE visible
28 Jan 3.0 07:05:07 10° N 07:10:06 57° WNW 07:15:04 10° SSW visible
29 Jan 3.4 06:28:15 10° NNE 06:33:20 65° E 06:38:22 10° S visible
29 Jan 6.5 19:26:37 10° W 19:27:41 11° W 19:28:44 10° WNW visible
30 Jan 5.0 05:51:56 10° NE 05:56:21 29° E 06:00:44 10° SSE visible
30 Jan 3.6 07:30:50 10° N 07:35:22 34° WNW 07:39:53 10° SW visible
30 Jan 5.6 18:46:22 10° SSW 18:50:27 24° W 18:54:35 10° NW visible
31 Jan 6.1 05:16:51 10° ENE 05:19:11 13° E 05:21:30 10° ESE visible
31 Jan 2.9 06:53:39 10° N 06:58:43 73° WNW 07:03:46 10° SSW visible
01 Feb 3.9 06:16:56 10° NNE 06:21:53 51° E 06:26:49 10° S visible
01 Feb 6.2 19:13:32 10° WSW 19:16:07 14° W 19:18:44 10° WNW visible
02 Feb 5.3 05:40:51 10° NE 05:44:52 23° E 05:48:51 10° SE visible
02 Feb 3.4 07:19:15 10° N 07:24:01 42° WNW 07:28:46 10° SW visible
02 Feb 5.2 18:34:30 10° SSW 18:38:57 31° W 18:43:27 10° NNW visible
03 Feb 3.0 06:42:12 10° NNE 06:47:19 89° E 06:52:24 10° SSW visible
04 Feb 4.4 06:05:39 10° NNE 06:10:25 40° E 06:15:11 10° SSE visible
04 Feb 6.0 19:01:11 10° SW 19:04:34 18° W 19:08:00 10° NW visible
05 Feb 5.7 05:29:51 10° NE 05:33:20 18° E 05:36:47 10° SE visible
05 Feb 3.1 07:07:43 10° N 07:12:40 53° WNW 07:17:34 10° SSW visible
